Location: Unspecified
(0.0000°N, 0.0000°E)
Time: 16:23:14
(UTC+00:00)

Vanguard 1 Rocket - All Passes

Search period start: 19 October 2020 00:00
Search period end: 29 October 2020 00:00
Orbit: 656 x 4221 km, 34.3° (Epoch: 18 October)

Date Brightness Start Highest point End Pass type
(mag) Time Alt. Az. Time Alt. Az. Time Alt. Az.
19 Oct - 00:15:43 10° WSW 00:36:13 29° SSW 00:54:52 10° SSE visible
19 Oct - 03:04:23 10° SW 03:15:44 16° S 03:24:25 10° SSE visible
19 Oct - 05:41:00 10° SSW 05:50:28 21° SSE 05:56:40 10° ESE daylight
19 Oct - 08:10:03 10° SW 08:18:48 74° SE 08:23:52 10° ENE daylight
19 Oct - 18:02:13 10° NNW 18:13:43 39° NE 18:33:18 10° ESE visible
19 Oct - 20:26:51 10° NW 20:44:00 83° SW 21:10:42 10° SE visible
19 Oct - 22:58:08 10° W 23:19:04 39° SSW 23:41:43 10° SE visible
20 Oct - 01:42:29 10° SW 01:58:27 19° SSW 02:11:14 10° SSE visible
20 Oct - 04:25:57 10° SSW 04:36:17 18° S 04:43:32 10° SE visible
20 Oct - 06:56:44 10° SW 07:07:10 41° SSE 07:13:01 10° E daylight
20 Oct - 09:27:02 10° W 09:32:39 28° NW 09:36:44 10° NNE daylight
20 Oct - 16:53:01 10° N 17:00:57 21° NE 17:12:53 10° E daylight
20 Oct - 19:15:24 10° NW 19:29:40 73° NE 19:54:42 10° ESE visible
20 Oct - 21:43:12 10° WNW 22:02:31 53° SSW 22:27:54 10° SE visible
21 Oct - 00:21:16 10° WSW 00:40:34 25° SSW 00:57:59 10° SSE visible
21 Oct - 03:08:21 10° SW 03:20:39 17° S 03:29:43 10° SE visible
21 Oct - 05:42:53 10° SSW 05:54:30 29° SSE 06:01:23 10° ESE daylight
21 Oct - 08:13:01 10° WSW 08:21:59 72° NW 08:27:08 10° NE daylight
21 Oct - 18:04:53 10° NNW 18:16:26 48° NE 18:37:12 10° ESE visible
21 Oct - 20:30:09 10° WNW 20:46:53 71° SW 21:13:12 10° SE visible
21 Oct - 23:02:51 10° W 23:22:52 33° SSW 23:44:25 10° SSE visible
22 Oct - 01:48:02 10° SW 02:03:29 19° S 02:15:39 10° SSE visible
22 Oct - 04:28:02 10° SSW 04:40:40 23° SSE 04:48:48 10° ESE visible
22 Oct - 06:59:09 10° SW 07:10:41 61° SSE 07:16:45 10° ENE daylight
22 Oct - 09:31:25 10° W 09:35:39 18° NW 09:39:00 10° N daylight
22 Oct - 16:55:21 10° NNW 17:03:57 28° NE 17:18:02 10° E daylight
22 Oct - 19:18:25 10° NW 19:32:23 86° NE 19:57:30 10° SE visible
22 Oct - 21:47:13 10° W 22:05:55 44° SSW 22:30:19 10° SE visible
23 Oct - 00:27:03 10° WSW 00:45:17 23° SSW 01:01:33 10° SSE visible
23 Oct - 03:11:30 10° SSW 03:25:25 20° S 03:35:09 10° SE visible
23 Oct - 05:44:57 10° SW 05:58:21 39° SSE 06:05:38 10° E daylight
23 Oct - 08:16:21 10° WSW 08:25:01 46° NW 08:30:08 10° NNE daylight
23 Oct - 15:48:03 10° NNE 15:51:43 12° NE 15:56:11 10° ENE daylight
23 Oct - 18:07:42 10° NW 18:19:05 60° NE 18:40:38 10° ESE visible
23 Oct - 20:33:41 10° WNW 20:49:59 59° SSW 21:15:35 10° SE visible
23 Oct - 23:07:59 10° WSW 23:27:05 29° SSW 23:47:20 10° SSE visible
24 Oct - 01:52:48 10° SW 02:08:33 19° S 02:20:39 10° SE visible
24 Oct - 04:30:06 10° SW 04:44:51 29° SSE 04:53:35 10° ESE visible
24 Oct - 07:01:49 10° SW 07:13:58 87° SE 07:20:12 10° NE daylight
24 Oct - 09:37:26 10° NW 09:38:42 11° NW 09:39:54 10° NNW daylight
24 Oct - 16:57:52 10° NNW 17:06:47 35° NE 17:22:30 10° ESE daylight
24 Oct - 19:21:38 10° WNW 19:35:15 79° SW 20:00:04 10° SE visible
24 Oct - 21:51:37 10° W 22:09:39 37° SSW 22:32:49 10° SE visible
25 Oct - 00:32:43 10° SW 00:50:19 21° S 01:05:42 10° SE visible
25 Oct - 03:14:08 10° SSW 03:30:00 24° SSE 03:40:24 10° ESE visible
25 Oct - 05:47:11 10° SW 06:01:59 54° SSE 06:09:31 10° ENE daylight
25 Oct - 08:20:06 10° WSW 08:27:55 31° NW 08:32:52 10° NNE daylight
25 Oct - 15:49:23 10° N 15:54:55 17° NE 16:02:42 10° E daylight
25 Oct - 18:10:39 10° NW 18:21:48 74° NE 18:43:41 10° ESE visible
25 Oct - 20:37:31 10° W 20:53:22 49° SSW 21:17:54 10° SE visible
25 Oct - 23:13:26 10° WSW 23:31:41 25° SSW 23:50:38 10° SE visible
26 Oct - 01:56:43 10° SW 02:13:31 21° S 02:25:57 10° SE visible
26 Oct - 04:32:10 10° SW 04:48:48 38° SSE 04:57:57 10° E visible
26 Oct - 07:04:46 10° WSW 07:17:03 67° NW 07:23:24 10° NE daylight
26 Oct - 17:00:32 10° NNW 17:09:30 46° NE 17:26:23 10° ESE daylight
26 Oct - 19:25:03 10° WNW 19:38:21 65° SSW 20:02:27 10° SE visible
26 Oct - 21:56:24 10° WSW 22:13:44 31° SSW 22:35:30 10° SE visible
27 Oct - 00:37:56 10° SW 00:55:29 21° S 01:10:28 10° SE visible
27 Oct - 03:16:30 10° SW 03:34:17 30° SSE 03:45:18 10° ESE visible
27 Oct - 05:49:35 10° SW 06:05:22 73° SE 06:13:06 10° ENE daylight
27 Oct - 08:24:26 10° W 08:30:48 21° NW 08:35:15 10° N daylight
27 Oct - 15:51:28 10° N 15:57:53 23° NE 16:07:58 10° E daylight
27 Oct - 18:13:46 10° NW 18:24:40 90° SW 18:46:26 10° SE visible
27 Oct - 20:41:40 10° W 20:57:02 40° SSW 21:20:13 10° SE visible
27 Oct - 23:18:59 10° SW 23:36:38 23° S 23:54:29 10° SE visible
28 Oct - 01:59:56 10° SW 02:18:16 25° SSE 02:31:15 10° ESE visible
28 Oct - 04:34:18 10° SW 04:52:30 50° SSE 05:01:57 10° ENE visible
28 Oct - 07:08:03 10° WSW 07:19:58 47° NW 07:26:21 10° NNE daylight
28 Oct - 17:03:23 10° NW 17:12:14 59° NE 17:29:48 10° ESE daylight
28 Oct - 19:28:44 10° WNW 19:41:42 53° SSW 20:04:43 10° SE visible
28 Oct - 22:01:32 10° WSW 22:18:11 27° SSW 22:38:30 10° SE visible
